Regional Weather Roundup
Issued by NWS

Home | Current Version | Previous Version | Graphics & Text | Print | Product List | Glossary On
Versions: 1 2 3 4 5 6 7 8 9 10 11 12 13 14 15 16 17 18 19 20 21 22 23 24 25 26 27 28 29 30 31 32 33 34 35 36 37 38 39 40 41 42 43 44 45 46 47 48 49 50
000
ASUS45 KBOI 290410
RWRID
WEATHER ROUNDUP FOR IDAHO
NATIONAL WEATHER SERVICE BOISE ID
1000 PM MDT MON JUL 28 2014

NOTE: "FAIR" INDICATES FEW OR NO CLOUDS BELOW 12000 FEET
WITH NO SIGNIFICANT WEATHER AND/OR OBSTRUCTIONS TO VISIBILITY

IDZ012-014-290500-
SOUTHWEST IDAHO


CITY           SKY/WX    TMP DP  RH WIND       PRES   REMARKS
BOISE          PTCLDY    89  46  22 E13       30.04R
CALDWELL       PTCLDY    79  54  41 N5        30.02R
MOUNTAIN HOME  CLOUDY    85  44  24 E5        30.04R
$$

IDZ016-017-290500-
SOUTHCENTRAL IDAHO


CITY           SKY/WX    TMP DP  RH WIND       PRES   REMARKS
BURLEY         CLOUDY    75  53  46 SE15G24   30.17R
JEROME         CLOUDY    78  48  34 NE10      30.14R
TWIN FALLS     CLOUDY    77  50  38 SE6       30.14R
$$

IDZ019>023-290500-
SOUTHEAST IDAHO


CITY           SKY/WX    TMP DP  RH WIND       PRES   REMARKS
IDAHO FALLS    CLOUDY    73  47  39 W12       30.25R
POCATELLO      LGT RAIN  70  54  56 E7        30.25R
REXBURG        CLOUDY    75  44  33 NW3       30.22R
$$

IDZ006-010-011-018-031-032-290500-
CENTRAL IDAHO MOUNTAINS


CITY           SKY/WX    TMP DP  RH WIND       PRES   REMARKS
MCCALL         MOCLDY    73  46  38 VRB3      30.22R
HAILEY         MOCLDY    70  48  46 CALM      30.26R
STANLEY          N/A     61  49  64 N3        30.37R
SALMON         MOCLDY    72  46  40 SE3       30.15R
CHALLIS        CLOUDY    72  46  39 CALM      30.24R
$$

IDZ002-004-006-007-026-290500-
NORTHERN IDAHO


CITY           SKY/WX    TMP DP  RH WIND       PRES   REMARKS
LEWISTON       CLEAR     93  40  15 N3        29.95R
LOWELL           N/A     76  61  59 N3        29.98R
COEUR D`ALENE  CLEAR     82  50  32 E5        30.03R
MULLAN PASS    CLEAR     70  36  28 N5        30.32S
$$


USA.gov is the U.S. government's official web portal to all federal, state and local government web resources and services.